• In Deutschland
  • Länderverzeichnis
  • Für 7 Tage
  • Wassertemperatur
  • Satellitenkarten
  • Wetterkarte
  • Widgets
  • user-avatar
    Anmelden

    Stündliche Wetter Dietzenbach

    Heute, 13 Dezember, Mittwoch

    Zeit Temperatur Niederschläge Wind Luftdruck Luftfeuchtigkeit
    00:00 -1°C° 0 mm 2 m/S 749 mmHg 90%
    01:00 -1°C° 0 mm 2 m/S 749 mmHg 91%
    02:00 -1°C° 0 mm 3 m/S 749 mmHg 91%
    03:00 -1°C° 0 mm 3 m/S 749 mmHg 92%
    04:00 -1°C° 0 mm 3 m/S 748 mmHg 92%
    05:00 0°C° 0 mm 3 m/S 748 mmHg 90%
    06:00 -1°C° 0 mm 4 m/S 748 mmHg 88%
    07:00 -1°C° 0 mm 4 m/S 747 mmHg 86%
    08:00 0°C° 0 mm 5 m/S 747 mmHg 84%
    09:00 0°C° 0 mm 5 m/S 746 mmHg 81%
    10:00 0°C° 0 mm 5 m/S 746 mmHg 79%
    11:00 +1°C° 0,1 mm 6 m/S 745 mmHg 77%
    12:00 +2°C° 0,1 mm 6 m/S 744 mmHg 75%
    13:00 +2°C° 0,1 mm 7 m/S 743 mmHg 73%
    14:00 +2°C° 0,9 mm 6 m/S 742 mmHg 75%
    15:00 +2°C° 0,9 mm 6 m/S 741 mmHg 78%
    16:00 +2°C° 0,9 mm 6 m/S 740 mmHg 80%
    17:00 +2°C° 1 mm 6 m/S 739 mmHg 82%
    18:00 +2°C° 1 mm 6 m/S 739 mmHg 84%
    19:00 +3°C° 1 mm 6 m/S 738 mmHg 85%
    20:00 +3°C° 0,1 mm 6 m/S 737 mmHg 85%
    21:00 +3°C° 0,1 mm 7 m/S 735 mmHg 85%
    22:00 +4°C° 0,1 mm 7 m/S 734 mmHg 85%
    23:00 +4°C° 0,7 mm 7 m/S 733 mmHg 85%

    Morgen, 14 Dezember, Donnerstag

    Zeit Temperatur Niederschläge Wind Luftdruck Luftfeuchtigkeit
    00:00 +5°C° 0,7 mm 8 m/S 733 mmHg 84%
    01:00 +5°C° 0,7 mm 8 m/S 732 mmHg 83%
    02:00 +4°C° 0,7 mm 7 m/S 732 mmHg 82%
    03:00 +4°C° 0,7 mm 7 m/S 733 mmHg 81%
    04:00 +3°C° 0,7 mm 6 m/S 733 mmHg 80%
    05:00 +2°C° 0,2 mm 6 m/S 734 mmHg 75%
    06:00 +2°C° 0,2 mm 7 m/S 735 mmHg 69%
    07:00 0°C° 0,2 mm 8 m/S 735 mmHg 64%
    08:00 0°C° 0 mm 7 m/S 736 mmHg 66%
    09:00 0°C° 0 mm 7 m/S 737 mmHg 67%
    10:00 0°C° 0 mm 7 m/S 738 mmHg 68%
    11:00 +2°C° 0 mm 7 m/S 738 mmHg 68%
    12:00 +3°C° 0 mm 6 m/S 738 mmHg 68%
    13:00 +3°C° 0 mm 6 m/S 737 mmHg 68%
    14:00 +3°C° 0,7 mm 6 m/S 737 mmHg 72%
    15:00 +3°C° 0,7 mm 5 m/S 736 mmHg 76%
    16:00 +3°C° 0,7 mm 5 m/S 735 mmHg 80%
    17:00 +3°C° 0,5 mm 4 m/S 734 mmHg 82%
    18:00 +3°C° 0,5 mm 3 m/S 734 mmHg 85%
    19:00 +3°C° 0,5 mm 3 m/S 733 mmHg 87%
    20:00 +3°C° 0,3 mm 3 m/S 732 mmHg 88%
    21:00 +3°C° 0,3 mm 3 m/S 731 mmHg 89%
    22:00 +3°C° 0,3 mm 3 m/S 730 mmHg 90%
    23:00 +3°C° 0,5 mm 4 m/S 730 mmHg 88%

    übermorgen, 15 Dezember, Freitag

    Zeit Temperatur Niederschläge Wind Luftdruck Luftfeuchtigkeit
    00:00 +3°C° 0,5 mm 4 m/S 730 mmHg 86%
    01:00 +2°C° 0,5 mm 5 m/S 730 mmHg 84%
    02:00 +2°C° 0,1 mm 5 m/S 731 mmHg 83%
    03:00 +2°C° 0,1 mm 5 m/S 731 mmHg 82%
    04:00 +1°C° 0,1 mm 5 m/S 732 mmHg 81%
    05:00 +1°C° 0,1 mm 5 m/S 733 mmHg 81%
    06:00 0°C° 0,1 mm 4 m/S 734 mmHg 81%
    07:00 0°C° 0,1 mm 4 m/S 735 mmHg 81%
    08:00 0°C° 0 mm 4 m/S 735 mmHg 82%
    09:00 0°C° 0 mm 4 m/S 736 mmHg 83%
    10:00 0°C° 0 mm 4 m/S 736 mmHg 83%
    11:00 +1°C° 0,1 mm 4 m/S 736 mmHg 81%
    12:00 +1°C° 0,1 mm 4 m/S 735 mmHg 78%
    13:00 +2°C° 0,1 mm 5 m/S 735 mmHg 76%
    14:00 +2°C° 0,3 mm 5 m/S 735 mmHg 78%
    15:00 +2°C° 0,3 mm 5 m/S 735 mmHg 80%
    16:00 +2°C° 0,3 mm 5 m/S 735 mmHg 81%
    17:00 +3°C° 0,2 mm 4 m/S 735 mmHg 82%
    18:00 +1°C° 0,2 mm 4 m/S 735 mmHg 83%
    19:00 +1°C° 0,2 mm 4 m/S 736 mmHg 84%
    20:00 +1°C° 0,1 mm 4 m/S 736 mmHg 86%
    21:00 +1°C° 0,1 mm 4 m/S 737 mmHg 88%
    22:00 +2°C° 0,1 mm 3 m/S 737 mmHg 90%
    23:00 0°C° 0,1 mm 4 m/S 738 mmHg 89%

    16 Dezember, Samstag

    Zeit Temperatur Niederschläge Wind Luftdruck Luftfeuchtigkeit
    00:00 0°C° 0,1 mm 4 m/S 738 mmHg 89%
    01:00 0°C° 0,1 mm 4 m/S 739 mmHg 89%
    02:00 +1°C° 0 mm 3 m/S 739 mmHg 89%
    03:00 +1°C° 0 mm 3 m/S 740 mmHg 89%
    04:00 0°C° 0 mm 3 m/S 740 mmHg 89%
    05:00 +1°C° 0,1 mm 3 m/S 741 mmHg 89%
    06:00 +1°C° 0,1 mm 3 m/S 742 mmHg 89%
    07:00 +1°C° 0,1 mm 3 m/S 742 mmHg 89%
    08:00 +1°C° 0 mm 3 m/S 743 mmHg 88%
    09:00 +1°C° 0 mm 3 m/S 744 mmHg 87%
    10:00 +1°C° 0 mm 3 m/S 744 mmHg 86%
    11:00 +1°C° 0 mm 4 m/S 745 mmHg 84%
    12:00 +1°C° 0 mm 4 m/S 745 mmHg 82%
    13:00 +1°C° 0 mm 4 m/S 745 mmHg 80%
    14:00 +2°C° 0 mm 3 m/S 746 mmHg 81%
    15:00 +2°C° 0 mm 3 m/S 746 mmHg 82%
    16:00 +2°C° 0 mm 3 m/S 747 mmHg 82%
    17:00 +1°C° 0 mm 3 m/S 747 mmHg 84%
    18:00 +1°C° 0 mm 3 m/S 748 mmHg 86%
    19:00 0°C° 0 mm 3 m/S 748 mmHg 87%
    20:00 0°C° 0 mm 3 m/S 749 mmHg 88%
    21:00 0°C° 0 mm 3 m/S 749 mmHg 89%
    22:00 0°C° 0 mm 3 m/S 750 mmHg 90%
    23:00 0°C° 0 mm 3 m/S 750 mmHg 90%

    17 Dezember, Sonntag

    Zeit Temperatur Niederschläge Wind Luftdruck Luftfeuchtigkeit
    00:00 0°C° 0 mm 3 m/S 751 mmHg 90%
    01:00 +1°C° 0 mm 2 m/S 751 mmHg 91%
    02:00 +1°C° 0 mm 2 m/S 751 mmHg 90%
    03:00 +1°C° 0 mm 2 m/S 752 mmHg 90%
    04:00 +1°C° 0 mm 2 m/S 752 mmHg 89%
    05:00 +1°C° 0 mm 2 m/S 752 mmHg 89%
    06:00 +1°C° 0 mm 2 m/S 753 mmHg 89%
    07:00 +1°C° 0 mm 2 m/S 753 mmHg 89%
    08:00 +1°C° 0 mm 2 m/S 754 mmHg 88%
    09:00 +1°C° 0 mm 2 m/S 755 mmHg 87%
    10:00 +1°C° 0 mm 2 m/S 755 mmHg 86%
    11:00 +2°C° 0 mm 2 m/S 756 mmHg 85%
    12:00 +2°C° 0 mm 2 m/S 756 mmHg 83%
    13:00 +3°C° 0 mm 2 m/S 756 mmHg 82%
    14:00 +2°C° 0 mm 2 m/S 757 mmHg 83%
    15:00 +2°C° 0 mm 2 m/S 757 mmHg 85%
    16:00 +2°C° 0 mm 2 m/S 757 mmHg 86%
    17:00 +1°C° 0 mm 2 m/S 758 mmHg 88%
    18:00 +2°C° 0 mm 1 m/S 758 mmHg 89%
    19:00 +1°C° 0 mm 1 m/S 759 mmHg 91%
    20:00 +1°C° 0 mm 1 m/S 759 mmHg 91%
    21:00 +1°C° 0 mm 1 m/S 759 mmHg 92%
    22:00 0°C° 0 mm 1 m/S 760 mmHg 92%
    23:00 0°C° 0 mm 1 m/S 760 mmHg 93%

    18 Dezember, Montag

    Zeit Temperatur Niederschläge Wind Luftdruck Luftfeuchtigkeit
    00:00 0°C° 0 mm 1 m/S 760 mmHg 93%
    01:00 0°C° 0 mm 1 m/S 760 mmHg 93%
    02:00 0°C° 0 mm 1 m/S 760 mmHg 93%
    03:00 0°C° 0 mm 1 m/S 760 mmHg 92%
    04:00 0°C° 0 mm 1 m/S 760 mmHg 92%
    05:00 -2°C° 0 mm 2 m/S 760 mmHg 91%
    06:00 -2°C° 0 mm 2 m/S 760 mmHg 91%
    07:00 -2°C° 0 mm 2 m/S 760 mmHg 90%
    08:00 -2°C° 0 mm 2 m/S 760 mmHg 89%
    09:00 -1°C° 0 mm 3 m/S 760 mmHg 87%
    10:00 -1°C° 0 mm 3 m/S 760 mmHg 86%
    11:00 -1°C° 0 mm 3 m/S 759 mmHg 84%
    12:00 -1°C° 0 mm 4 m/S 759 mmHg 83%
    13:00 -1°C° 0 mm 4 m/S 758 mmHg 81%
    14:00 -1°C° 0,4 mm 4 m/S 757 mmHg 83%
    15:00 -1°C° 0,4 mm 4 m/S 757 mmHg 84%
    16:00 -1°C° 0,4 mm 4 m/S 756 mmHg 86%
    17:00 -1°C° 0,5 mm 4 m/S 756 mmHg 87%
    18:00 -1°C° 0,5 mm 4 m/S 756 mmHg 89%
    19:00 -1°C° 0,5 mm 4 m/S 756 mmHg 90%
    20:00 0°C° 0,2 mm 3 m/S 756 mmHg 91%
    21:00 0°C° 0,2 mm 3 m/S 756 mmHg 92%
    22:00 +1°C° 0,2 mm 2 m/S 756 mmHg 93%
    23:00 +1°C° 0,1 mm 2 m/S 756 mmHg 94%
    Mehr zeigen